Weather History for KCPS - June, 2013

Change the Weather History Date:

Sunday, June 9, 2013

  Actual Average Record
Temperature  
Mean Temperature 70 °F -  
Max Temperature 81 °F 87 °F 99 °F (1953)
Min Temperature 62 °F 68 °F 51 °F (2007)
Cooling Degree Days 6    
Growing Degree Days 20 (Base 50)    
Moisture  
Dew Point 59 °F    
Average Humidity 73    
Maximum Humidity 93    
Minimum Humidity 56    
Precipitation  
Precipitation 0.04 in - - ()
Sea Level Pressure  
Sea Level Pressure 29.88 in    
Wind  
Wind Speed 6 mph (South)    
Max Wind Speed 16 mph    
Max Gust Speed 29 mph    
Visibility 10 miles    
Events Rain , Thunderstorm    
Averages and records for this station are not official NWS values.
T = Trace of Precipitation, MM = Missing Value Source: NWS Daily Summary

Daily Weather History Graph

Daily Weather History Graph

Search for Another Location

Airport or City:

Trip Planner

Search our weather history database for the weather conditions in past years. The results will help you decide how hot, cold, wet, or windy it might be!

Date:

Astronomy

Jun. 09, 2013 Rise Set
Actual Time 5:35 AM CDT 8:24 PM CDT
Civil Twilight 5:04 AM CDT 8:55 PM CDT
Nautical Twilight 4:24 AM CDT 9:35 PM CDT
Astronomical Twilight 3:39 AM CDT 10:20 PM CDT
Moon 6:31 AM CDT (6/9) 9:11 PM CDT (6/9)
Length of Visible Light 15h 51m
Length of Day
14h 48m
New Moon, 1% of the Moon is Illuminated
Jun 9
New Moon
Jun 16
First Quarter
Jun 23
Full
Jun 29
Last Quarter
Jul 8
New

Hourly Weather History & Observations

Time (CDT) Temp. Dew Point Humidity Pressure Visibility Wind Dir Wind Speed Gust Speed Precip Events Conditions
12:53 AM 66.0 °F 57.0 °F 73% 29.94 in 10.0 mi SSE 5.8 mph - N/A   Partly Cloudy
1:53 AM 66.0 °F 57.0 °F 73% 29.94 in 10.0 mi SSE 6.9 mph - N/A   Scattered Clouds
2:53 AM 66.0 °F 57.0 °F 73% 29.93 in 10.0 mi SSE 4.6 mph - N/A   Scattered Clouds
3:53 AM 66.0 °F 57.0 °F 73% 29.93 in 10.0 mi South 5.8 mph - N/A   Clear
4:53 AM 64.9 °F 57.0 °F 75% 29.93 in 10.0 mi SSE 4.6 mph - N/A   Clear
5:53 AM 64.0 °F 57.0 °F 78% 29.92 in 10.0 mi Calm Calm - N/A   Clear
6:53 AM 66.0 °F 59.0 °F 78% 29.92 in 10.0 mi Calm Calm - N/A   Clear
7:53 AM 69.1 °F 59.0 °F 70% 29.93 in 10.0 mi Variable 5.8 mph - N/A   Mostly Cloudy
8:53 AM 72.0 °F 60.1 °F 66% 29.92 in 10.0 mi SSE 3.5 mph - N/A   Partly Cloudy
9:53 AM 77.0 °F 61.0 °F 58% 29.90 in 10.0 mi South 8.1 mph - N/A   Clear
10:53 AM 78.1 °F 62.1 °F 58% 29.89 in 10.0 mi SSE 10.4 mph 16.1 mph N/A   Clear
11:53 AM 78.1 °F 61.0 °F 56% 29.88 in 10.0 mi South 10.4 mph - N/A   Mostly Cloudy
12:53 PM 79.0 °F 63.0 °F 58% 29.86 in 10.0 mi SSE 13.8 mph 17.3 mph N/A   Scattered Clouds
1:24 PM 66.2 °F 59.0 °F 78% 29.89 in 9.0 mi West 16.1 mph 28.8 mph 0.01 in Rain , Thunderstorm Light Rain
1:53 PM 68.0 °F 61.0 °F 78% 29.88 in 10.0 mi Calm Calm - 0.01 in   Mostly Cloudy
2:53 PM 71.1 °F 60.1 °F 68% 29.86 in 10.0 mi Calm Calm - N/A   Mostly Cloudy
3:53 PM 70.0 °F 57.0 °F 63% 29.85 in 10.0 mi Variable 4.6 mph - 0.00 in Rain Light Rain
4:53 PM 66.9 °F 59.0 °F 76% 29.83 in 10.0 mi South 4.6 mph - 0.01 in Rain Light Rain
5:53 PM 69.1 °F 61.0 °F 75% 29.83 in 10.0 mi South 8.1 mph - 0.02 in   Mostly Cloudy
6:53 PM 70.0 °F 59.0 °F 68% 29.82 in 10.0 mi South 6.9 mph - N/A   Scattered Clouds
7:53 PM 69.1 °F 61.0 °F 75% 29.80 in 10.0 mi SSE 4.6 mph - N/A   Partly Cloudy
8:53 PM 64.9 °F 61.0 °F 87% 29.81 in 10.0 mi South 4.6 mph - N/A   Clear
9:53 PM 63.0 °F 61.0 °F 93% 29.83 in 10.0 mi SSE 3.5 mph - N/A   Clear
10:53 PM 62.1 °F 60.1 °F 93% 29.85 in 9.0 mi WNW 4.6 mph 16.1 mph N/A   Partly Cloudy
11:53 PM 63.0 °F 60.1 °F 90% 29.81 in 10.0 mi SSE 4.6 mph - N/A   Partly Cloudy